Location: *
(49.9853°N, 3.5569°E)
Time: 20:44:29
(UTC+00:00)

Terra - Pass Details

Date: 22 September 2019
Orbit: 701 x 703 km, 98.2° (Epoch: 21 October)

Event Time Altitude Azimuth Distance (km) Brightness Sun altitude
Exits shadow 19:42:35 12° 50° (NE) 2,076 4.0 -19.2°
Drops below altitude 10° 19:44:01 10° 33° (NNE) 2,182 4.3 -19.4°
Sets 19:47:51 0° 1° (N) 3,106 5.5 -20.0°
